[[{"header":{"parameterUnit":"m.s-1","parameterCategory":1,"la1":30.2991,"la2":30.254,"lo1":-89.0895,"lo2":-89.0444,"dx":0.0017,"dy":0.0017,"nx":28,"ny":28,"refTime":"2022-12-09T15:00:00:Z","depth":0,"parameterNumber":2,"parameterNumberName":"U-component_of_WINDS"},"data":[0,0,0,0,0,0,0,0,0,0,0,0,0,0,0,0,0,0,0,0,0,0,0,0,0,0,0,0,0,0,0,0,0,0,0,0,0,0,0,0,0,0,0,0,0,0,0,0,0,0,0,0,0,0,0,0,0,0,1.0131,1.0132,0,1.0199,1.02,1.0201,1.0184,1.0183,1.0182,1.0181,1.0249,1.0252,1.0255,0,0,0,0,0,0,0,0,0,0,0,0,0,0.9986,0.9989,1.0131,1.0132,1.0133,1.0199,1.02,1.0201,1.0185,1.0183,1.0182,1.018,1.0248,1.0251,1.0255,0,0,0,0,0,0,0,0,0,0,0,0,0,1.0051,0.999,1.0131,1.0133,1.0133,1.0199,1.02,1.0201,1.0185,1.0183,1.0181,1.0179,1.0247,1.0251,1.0255,1.0323,0,0,1.0269,1.0271,0,0,0,0,0,0,0,0,1.0048,1.0057,1.0131,1.0133,1.0134,1.0181,1.0174,1.0242,1.0186,1.0165,1.0181,1.0178,1.0228,1.0234,1.0251,1.0326,1.0329,1.027,1.0273,1.0274,1.0276,0,0,0,0,0,0,0,1.0043,1.0054,1.0158,1.0133,1.0134,1.013,1.0137,1.0187,1.0207,1.0167,1.0166,1.0174,1.0228,1.0246,1.0252,1.033,1.027,1.0274,1.0276,1.0278,1.0467,1.0469,0,0,0,0,0,0,1.0038,1.005,1.0156,1.016,1.0085,1.0134,1.0142,1.0168,1.0206,1.021,1.0176,1.0173,1.024,1.0247,1.0255,1.0338,1.0274,1.0279,1.0281,1.0465,1.0467,1.047,0,0,0,0,0,0,1.0035,1.0047,1.0153,1.0105,1.0118,1.0139,1.0168,1.017,1.0189,1.0213,1.0216,1.0191,1.0238,1.0248,1.0307,1.034,1.0281,1.0285,1.0462,1.0465,1.0469,1.0505,0,0,0,0,0,0,1.0031,1.0046,1.0072,1.0105,1.0121,1.0204,1.017,1.0173,1.0197,1.0194,1.0228,1.0232,1.0238,1.03,1.0311,1.0346,1.0288,1.0459,1.0464,1.0468,1.0501,1.0509,1.0516,0,0,0,0,0,1.0026,1.0078,1.0074,1.0086,1.0153,1.0206,1.0215,1.0221,1.02,1.0226,1.0242,1.0231,1.0335,1.0306,1.0319,1.0355,1.0457,1.0462,1.0467,1.0497,1.0507,1.0516,0,0,0,0,0,0,1.0047,1.0083,1.0078,1.0143,1.0172,1.0203,1.0237,1.0231,1.0266,1.0262,1.0267,1.0275,1.0335,1.035,1.0318,1.0423,1.0393,1.0401,1.0411,1.0421,1.0429,1.0424,1.0292,0,0,0,0,0,1.006,1.01,1.0129,1.0184,1.0199,1.0215,1.0238,1.0241,1.0271,1.0283,1.0302,1.0332,1.0371,1.0397,1.0434,1.0503,1.0511,1.0534,1.0541,1.0548,1.0555,1.0594,1.0606,1.0487,1.0487,1.0487,0,0,1.0086,1.011,1.0135,1.0189,1.0211,1.0254,1.0226,1.027,1.0302,1.0289,1.0347,1.0362,1.0395,1.046,1.0489,1.0475,1.0589,1.0554,1.0559,1.0563,1.0601,1.0612,1.0622,1.049,1.049,1.0489,0,0,1.0155,1.0177,1.0227,1.0251,1.0286,1.0297,1.0309,1.0342,1.0352,1.041,1.0402,1.0439,1.0506,1.0531,1.0552,1.0634,1.0626,1.0645,1.0686,1.0725,1.0734,1.0743,1.0774,1.0784,1.0652,1.0652,1.0652,0,1.0183,1.0246,1.0252,1.0299,1.0324,1.0316,1.0366,1.0389,1.0434,1.0451,1.0434,1.0521,1.0542,1.0613,1.0634,1.065,1.0665,1.0642,1.0732,1.0741,1.0749,1.0779,1.079,1.0655,1.0654,1.0654,1.0654,0,1.028,1.0324,1.036,1.0406,1.0434,1.0482,1.0496,1.0524,1.0525,1.0538,1.0598,1.0624,1.0667,1.0684,1.0684,1.0756,1.0747,1.0731,1.0701,1.0763,1.0791,1.0802,1.0658,1.0657,1.0657,1.0656,0,0,1.0364,1.0415,1.0428,1.045,1.0489,1.0523,1.0572,1.0616,1.0641,1.0672,1.0714,1.0772,1.0759,1.0783,1.0786,1.082,1.0886,1.08,1.0801,1.0817,1.0969,1.0982,1.0995,1.088,1.0882,1.0884,1.0967,0,1.0439,1.0525,1.0533,1.0611,1.0653,1.0647,1.0689,1.0718,1.0732,1.077,1.0785,1.0827,1.0805,1.082,1.0853,1.087,1.0916,1.0864,1.092,1.0922,1.0913,1.1009,1.1022,1.11,1.0978,1.098,1.0981,0,1.0537,1.0574,1.0656,1.0692,1.071,1.0748,1.079,1.0826,1.0859,1.0867,1.0896,1.0895,1.0945,1.0913,1.0984,1.0948,1.0971,1.0983,1.0987,1.0993,1.0956,1.102,1.1124,1.1136,1.0998,1.0997,1.0995,0,1.0592,1.0662,1.0722,1.074,1.0783,1.081,1.0829,1.0861,1.0887,1.0924,1.0942,1.0983,1.1006,1.1039,1.1049,1.1024,1.1121,1.1088,1.1129,1.1129,1.1151,1.1149,1.1262,1.1163,1.1163,1.1163,1.1162,0,1.0675,1.0727,1.0748,1.0784,1.0842,1.0851,1.0908,1.0925,1.0954,1.0994,1.099,1.1028,1.1039,1.1079,1.1087,1.1146,1.1155,1.1164,1.1166,1.1165,1.1165,1.1181,1.1177,1.1166,1.1165,1.1164,1.1164,0,1.0748,1.0763,1.0828,1.0864,1.0874,1.0916,1.0946,1.0982,1.0996,1.1047,1.1059,1.1081,1.1128,1.1142,1.1198,1.1203,1.1273,1.1269,1.1262,1.1263,1.1304,1.1301,1.1433,1.1451,1.1339,1.134,1.1341,0,1.08,1.084,1.0881,1.0908,1.0929,1.0972,1.1,1.1011,1.104,1.1083,1.1113,1.116,1.1198,1.1274,1.1295,1.1338,1.1336,1.1379,1.1342,1.1342,1.1339,1.1337,1.1342,1.1387,1.1388,1.1389,1.1389,0,1.0893,1.0899,1.094,1.0984,1.1018,1.1053,1.1087,1.1109,1.1125,1.1158,1.1207,1.1237,1.1295,1.1342,1.1387,1.1406,1.1401,1.1401,1.1413,1.1414,1.1409,1.1414,1.1283,1.1398,1.1397,1.1396,1.1396,1.1396,1.0958,1.0994,1.1029,1.1075,1.1102,1.1135,1.1171,1.119,1.1231,1.1281,1.1284,1.1338,1.1372,1.1431,1.1453,1.1495,1.1483,1.15,1.1505,1.1509,1.1514,1.1401,1.1503,1.1503,1.1503,1.1503,1.1502,0,1.1052,1.1075,1.1117,1.1166,1.1203,1.1195,1.1233,1.1264,1.1312,1.1344,1.1383,1.144,1.1486,1.1511,1.1558,1.1587,1.1586,1.1599,1.1597,1.1602,1.1521,1.1507,1.1599,1.1599,1.1599,1.1599,1.1599,1.1599,1.1105,1.1167,1.1178,1.1253,1.1275,1.1329,1.1351,1.1381,1.1408,1.1473,1.1511,1.1528,1.1558,1.1607,1.1649,1.1656,1.1674,1.1688,1.1693,1.1617,1.1608,1.1598,1.1585,1.1692,1.1692,1.1771,1.1772,1.1773]},{"header":{"parameterUnit":"m.s-1","parameterCategory":1,"la1":30.2991,"la2":30.254,"lo1":-89.0895,"lo2":-89.0444,"dx":0.0017,"dy":0.0017,"nx":28,"ny":28,"refTime":"2022-12-09T15:00:00:Z","depth":0,"parameterNumber":3,"parameterNumberName":"V-component_of_WINDS"},"data":[0,0,0,0,0,0,0,0,0,0,0,0,0,0,0,0,0,0,0,0,0,0,0,0,0,0,0,0,0,0,0,0,0,0,0,0,0,0,0,0,0,0,0,0,0,0,0,0,0,0,0,0,0,0,0,0,0,0,-0.7429,-0.7428,0,-0.7299,-0.7297,-0.7296,-0.7247,-0.7247,-0.7248,-0.7248,-0.7107,-0.7103,-0.7099,0,0,0,0,0,0,0,0,0,0,0,0,0,-0.7629,-0.7626,-0.7429,-0.7428,-0.7426,-0.7299,-0.7297,-0.7296,-0.7247,-0.7247,-0.7248,-0.7248,-0.7109,-0.7104,-0.7099,0,0,0,0,0,0,0,0,0,0,0,0,0,-0.7525,-0.7625,-0.743,-0.7387,-0.7382,-0.73,-0.7297,-0.7295,-0.7247,-0.7247,-0.7248,-0.7248,-0.711,-0.7104,-0.7098,-0.7047,0,0,-0.7079,-0.7076,0,0,0,0,0,0,0,0,-0.7531,-0.7517,-0.7395,-0.7389,-0.7384,-0.729,-0.7316,-0.7212,-0.7246,-0.7298,-0.7248,-0.7249,-0.7167,-0.7156,-0.713,-0.704,-0.7034,-0.7079,-0.7075,-0.7072,-0.707,0,0,0,0,0,0,0,-0.7538,-0.7523,-0.7377,-0.7393,-0.7386,-0.7372,-0.7357,-0.7296,-0.723,-0.7293,-0.7289,-0.7275,-0.7164,-0.7136,-0.7126,-0.7032,-0.7079,-0.7073,-0.7069,-0.7067,-0.6894,-0.6893,0,0,0,0,0,0,-0.7553,-0.7529,-0.7382,-0.7374,-0.746,-0.7367,-0.7352,-0.7319,-0.7231,-0.7218,-0.7275,-0.7273,-0.7147,-0.7134,-0.7121,-0.7055,-0.7072,-0.7066,-0.7063,-0.6895,-0.6894,-0.6893,0,0,0,0,0,0,-0.7558,-0.7541,-0.7387,-0.745,-0.743,-0.7363,-0.7327,-0.7316,-0.7288,-0.7217,-0.7204,-0.7259,-0.7146,-0.713,-0.7066,-0.705,-0.7064,-0.7058,-0.6896,-0.6894,-0.6893,-0.6924,0,0,0,0,0,0,-0.7564,-0.7543,-0.7524,-0.745,-0.7427,-0.7336,-0.7326,-0.7313,-0.7279,-0.7276,-0.7198,-0.7186,-0.7146,-0.7076,-0.706,-0.7042,-0.7053,-0.6897,-0.6895,-0.6894,-0.6924,-0.6924,-0.6924,0,0,0,0,0,-0.7571,-0.7536,-0.7524,-0.7506,-0.7402,-0.7335,-0.7321,-0.7278,-0.7278,-0.7257,-0.7211,-0.7189,-0.7055,-0.707,-0.7052,-0.7031,-0.6898,-0.6896,-0.6894,-0.6924,-0.6924,-0.6924,0,0,0,0,0,0,-0.7607,-0.7526,-0.7511,-0.7452,-0.7401,-0.7327,-0.73,-0.7279,-0.7225,-0.7224,-0.717,-0.7153,-0.7094,-0.7056,-0.7074,-0.6977,-0.6974,-0.6969,-0.7004,-0.7003,-0.7003,-0.7013,-0.7048,0,0,0,0,0,-0.7609,-0.7564,-0.7494,-0.7448,-0.7424,-0.7367,-0.7336,-0.7307,-0.7252,-0.7229,-0.7178,-0.7123,-0.7069,-0.7034,-0.698,-0.6919,-0.69,-0.6895,-0.6895,-0.6896,-0.6891,-0.6855,-0.6852,-0.6886,-0.6886,-0.6886,0,0,-0.761,-0.7561,-0.7535,-0.7454,-0.7412,-0.7364,-0.7349,-0.7299,-0.7263,-0.7221,-0.7158,-0.7119,-0.7054,-0.6992,-0.6961,-0.6958,-0.6878,-0.6893,-0.6894,-0.6889,-0.6853,-0.685,-0.6847,-0.6885,-0.6885,-0.6885,0,0,-0.7589,-0.7548,-0.7505,-0.7464,-0.7401,-0.7363,-0.7353,-0.7282,-0.7256,-0.7193,-0.716,-0.7115,-0.7022,-0.6977,-0.6942,-0.6905,-0.6882,-0.6889,-0.6887,-0.6853,-0.6851,-0.6848,-0.6834,-0.683,-0.6885,-0.6885,-0.6885,0,-0.7598,-0.7528,-0.7485,-0.7438,-0.7403,-0.7366,-0.7321,-0.7282,-0.7203,-0.7179,-0.7177,-0.7061,-0.7014,-0.694,-0.6932,-0.6905,-0.689,-0.6897,-0.6855,-0.6852,-0.6849,-0.6835,-0.683,-0.6886,-0.6886,-0.6886,-0.6886,0,-0.7542,-0.7494,-0.7466,-0.7395,-0.7357,-0.7311,-0.7259,-0.7225,-0.72,-0.7162,-0.7097,-0.7041,-0.6975,-0.6955,-0.6928,-0.6877,-0.6877,-0.6866,-0.6862,-0.6847,-0.6833,-0.6828,-0.6888,-0.6887,-0.6887,-0.6887,0,0,-0.7539,-0.7446,-0.7436,-0.7403,-0.7331,-0.7292,-0.7243,-0.7181,-0.7153,-0.71,-0.7057,-0.698,-0.697,-0.693,-0.6898,-0.6868,-0.6842,-0.686,-0.6858,-0.6858,-0.6781,-0.679,-0.6785,-0.6827,-0.6826,-0.6825,-0.6787,0,-0.7507,-0.7423,-0.7383,-0.7315,-0.7269,-0.7233,-0.7191,-0.7141,-0.7104,-0.7058,-0.7016,-0.6963,-0.6953,-0.6929,-0.6898,-0.6852,-0.6826,-0.6854,-0.6784,-0.6782,-0.6801,-0.6777,-0.6786,-0.6753,-0.6781,-0.678,-0.6779,0,-0.7459,-0.741,-0.7338,-0.7272,-0.7251,-0.7214,-0.7154,-0.7111,-0.7053,-0.7028,-0.6985,-0.6955,-0.6901,-0.6902,-0.6826,-0.6846,-0.6815,-0.6788,-0.6786,-0.6777,-0.6779,-0.6767,-0.6741,-0.6736,-0.677,-0.6771,-0.6772,0,-0.7464,-0.7378,-0.7324,-0.7297,-0.7219,-0.7194,-0.716,-0.7103,-0.7068,-0.7015,-0.6991,-0.6932,-0.6899,-0.6852,-0.6806,-0.6811,-0.6734,-0.6731,-0.671,-0.6711,-0.6694,-0.6696,-0.6663,-0.6676,-0.6676,-0.6677,-0.6677,0,-0.7432,-0.7389,-0.7325,-0.7292,-0.7242,-0.7197,-0.7148,-0.711,-0.7061,-0.7018,-0.6983,-0.6942,-0.6884,-0.6836,-0.68,-0.6742,-0.6727,-0.6704,-0.6695,-0.6707,-0.671,-0.6685,-0.6686,-0.6675,-0.6675,-0.6676,-0.6676,0,-0.7428,-0.7384,-0.7322,-0.7254,-0.7236,-0.7203,-0.7143,-0.7108,-0.7071,-0.7017,-0.7001,-0.6941,-0.6883,-0.6833,-0.6755,-0.6731,-0.6671,-0.666,-0.6691,-0.6686,-0.6667,-0.667,-0.6616,-0.6607,-0.6628,-0.6628,-0.6628,0,-0.7411,-0.7377,-0.7307,-0.7277,-0.7244,-0.7196,-0.7161,-0.7115,-0.7079,-0.7012,-0.6985,-0.6925,-0.6874,-0.6783,-0.6731,-0.6671,-0.6658,-0.6643,-0.6648,-0.6662,-0.6656,-0.6659,-0.6655,-0.6643,-0.6643,-0.6643,-0.6643,0,-0.7384,-0.7364,-0.7317,-0.7262,-0.7222,-0.7176,-0.7128,-0.7105,-0.7049,-0.7011,-0.6953,-0.6914,-0.6836,-0.6776,-0.6711,-0.6673,-0.6648,-0.6642,-0.6634,-0.6645,-0.6665,-0.6653,-0.669,-0.6643,-0.6643,-0.6643,-0.6643,-0.6643,-0.7372,-0.7341,-0.7287,-0.7235,-0.7195,-0.7152,-0.7116,-0.7075,-0.7026,-0.6961,-0.6936,-0.6876,-0.6819,-0.6729,-0.6692,-0.6643,-0.6639,-0.6627,-0.6624,-0.6621,-0.6623,-0.6674,-0.6631,-0.6631,-0.6631,-0.6631,-0.663,0,-0.7343,-0.7307,-0.726,-0.7196,-0.7155,-0.7138,-0.7085,-0.7051,-0.7,-0.695,-0.6901,-0.6834,-0.6776,-0.6721,-0.6659,-0.6631,-0.6618,-0.6616,-0.6617,-0.6609,-0.6631,-0.6644,-0.6628,-0.6628,-0.6628,-0.6628,-0.6628,-0.6628,-0.7323,-0.727,-0.7244,-0.7169,-0.7132,-0.7076,-0.7047,-0.7006,-0.6966,-0.6893,-0.6846,-0.6811,-0.6758,-0.6693,-0.6638,-0.6623,-0.6602,-0.6603,-0.6585,-0.6606,-0.6607,-0.6608,-0.662,-0.6599,-0.6599,-0.6567,-0.6567,-0.6566]}]]